Location: Linz
(48.3300°N, 14.3000°E)
Time: 00:13:36
(UTC+01:00)

N. Korean satellite - Pass Details

Date: 11 November 2017
Orbit: 460 x 515 km, 97.2° (Epoch: 17 November)

Event Time Altitude Azimuth Distance (km) Brightness Sun altitude
Rises 05:54:04 0° 29° (NNE) 2,578 10.5 -11.8°
Reaches altitude 10° 05:56:47 10° 51° (NE) 1,702 9.9 -11.3°
Maximum altitude 05:59:08 16° 91° (E) 1,364 10.1 -11.0°
Drops below altitude 10° 06:01:30 10° 131° (SE) 1,711 10.4 -10.6°
Sets 06:04:14 0° 154° (SSE) 2,599 10.9 -10.1°
